Temp_Advection
nan nan nan nan nan nan nan nan nan nan nan nan nan nan nan nan nan nan nan nan nan nan nan nan nan nan nan nan nan nan nan nan nan nan nan nan nan nan nan nan nan nan nan nan nan nan nan nan nan
nan -0 0 -1 0 -1 -0 -0 -1 -0 -0 -0 0 0 -0 -1 -1 -0 -0 0 0 -0 -1 -0 -0 -0 -0 0 0 -0 -0 -0 -0 -0 -0 -0 -0 -0 -0 -0 -0 -0 -0 -0 0 -0 -0 0 nan
nan 0 -0 0 -0 -0 -0 -0 -0 -0 0 0 -0 -0 -0 -1 -0 -0 -0 -0 0 -0 -1 -1 -0 -0 0 0 0 0 -0 -0 -0 -0 -0 -0 -0 -0 0 0 -0 -0 -0 0 0 0 0 0 nan
nan -0 -0 0 -0 -0 0 -0 -0 -0 -0 -0 -0 -0 -1 -0 -0 -0 -0 -0 0 0 0 -0 0 0 0 0 0 0 0 -0 -0 -0 -0 -0 0 0 0 0 0 0 0 0 0 0 0 0 nan
nan -1 -0 -0 -0 0 -0 -0 0 -0 -0 -0 -0 -0 -1 -0 -0 0 -0 0 -0 0 0 1 0 0 0 0 0 0 0 0 0 0 0 0 0 0 0 0 0 0 0 0 0 0 0 0 nan
nan -0 0 -0 0 -0 -0 -0 -0 -0 -0 -0 -0 -0 -1 -0 0 -0 -0 0 -0 -0 -0 1 1 0 0 0 0 0 0 0 0 0 0 0 -0 0 0 0 0 -0 -0 0 0 0 0 0 nan
nan -0 -0 0 -0 -0 -0 -0 0 -0 -0 -0 0 -0 -1 -1 -0 -0 0 0 0 0 0 -0 1 1 1 0 0 0 0 0 0 0 0 0 0 0 -0 -0 -0 0 0 0 0 0 0 0 nan
nan 0 -0 0 0 -0 -0 -0 -0 -0 -0 -0 0 0 -1 -0 -0 -0 0 0 0 0 0 -0 -0 0 0 0 0 0 0 0 0 0 0 0 0 0 0 0 0 0 0 -0 0 0 -0 -0 nan
nan 0 -0 0 0 0 -0 0 -0 -0 -0 -0 0 0 -0 -0 -0 -0 -0 -0 0 0 -0 -0 -0 -0 -0 0 0 0 0 0 0 0 0 0 0 0 0 -0 -0 -0 -0 0 0 0 -0 -0 nan
nan -0 -0 0 -0 -0 0 0 -0 -0 -1 -0 -0 -0 0 -1 -0 -0 -1 -0 -0 -0 -0 0 0 0 -0 -0 0 0 0 0 0 0 0 -0 -0 0 -0 -0 -0 0 0 0 0 0 0 0 nan
nan -0 -0 -0 -0 -0 -0 0 -0 -0 -0 -0 -0 -1 -0 -1 -1 -0 -0 -0 -0 -0 0 0 0 0 0 -0 0 -0 0 -0 -0 -0 -0 -0 0 -0 -0 0 0 0 -0 -0 0 0 0 0 nan
nan -0 -0 -0 0 -0 -0 0 0 0 0 -0 -0 -0 -1 -1 -0 -0 -0 -0 -0 -0 -0 0 0 0 0 0 0 0 0 0 -0 -0 0 0 -0 -0 -0 0 0 -0 -0 0 0 0 0 -0 nan
nan -0 -0 -0 0 0 -0 -0 0 0 0 0 0 -0 -1 -0 -0 -0 -0 0 0 -0 -0 0 -0 -0 -0 -0 -0 0 -0 0 0 0 -0 -0 0 0 -0 0 0 0 -0 -0 0 0 0 0 nan
nan -0 -0 0 0 0 -0 0 0 -0 -0 0 0 -0 -0 0 -0 -0 0 0 0 -0 0 -0 -0 -0 -0 -0 0 0 0 0 -0 -0 0 0 0 -0 0 0 0 0 -0 -0 0 0 0 0 nan
nan -1 -0 -0 0 -0 0 -0 0 -0 -0 -0 -0 0 0 0 0 0 0 0 0 0 0 -0 0 0 0 0 0 0 0 -0 -0 0 0 -0 -0 0 0 0 1 -0 -0 0 -0 0 0 -0 nan
nan -0 -0 -0 0 -0 0 -0 -0 0 -0 -0 -0 0 0 0 0 0 0 0 0 0 0 0 0 0 0 0 0 0 0 -0 0 0 0 0 -0 -0 0 0 -0 -0 -0 -0 -0 0 -0 0 nan
nan 0 0 0 -0 0 0 0 -0 -0 0 -0 -0 -0 0 0 0 0 0 0 0 0 0 0 0 0 0 0 0 -0 0 -0 -0 0 0 0 0 0 0 -0 -0 -0 -0 -0 -0 0 0 0 nan
nan 0 0 -0 -0 -0 -0 0 -0 0 0 -0 -0 -0 -0 -0 0 0 0 0 0 0 -0 0 -0 -0 -0 -0 0 -0 0 0 -0 0 0 0 -0 -0 -0 -0 0 -0 -0 -0 0 0 0 0 nan
nan -0 -0 -0 -0 -0 -0 -0 0 0 -0 -0 -0 -0 -0 -0 0 0 0 0 -0 0 0 -0 -0 -0 -0 0 0 -0 0 -0 0 -0 -0 0 0 0 1 1 -0 -0 0 0 0 1 0 -0 nan
nan -0 -0 0 0 -0 -0 -0 0 -0 0 0 0 -0 -0 -0 -0 -0 0 -0 1 1 0 -0 0 0 0 0 -0 -0 0 0 -0 0 -0 -0 0 0 0 0 0 -0 0 0 1 -0 -1 -0 nan
nan -0 0 -0 -0 -0 -0 -0 0 -0 0 -0 -0 -0 -0 0 -0 -0 0 -0 0 0 0 0 0 -0 -0 -0 -0 -0 0 0 -0 -0 0 0 0 -0 -0 -1 -0 0 -0 0 -0 -0 0 0 nan
nan 0 0 -0 -0 -0 0 -0 -0 0 0 -0 -0 0 0 0 0 -0 -0 -0 -0 -0 0 0 -0 0 -0 -0 -0 0 0 0 0 0 0 0 0 0 0 -0 -1 -1 0 0 0 0 0 0 nan
nan 0 -0 -0 -0 -0 -0 -0 -0 -0 0 -0 0 0 0 0 0 -0 -0 0 -0 0 -0 -0 0 0 0 0 -0 -0 -0 0 -0 -0 -0 0 0 0 0 0 -0 -0 -0 -0 0 0 0 0 nan
nan -0 -0 -0 0 0 -0 -0 -0 0 -0 -0 -0 0 0 0 0 -0 -0 0 0 0 -0 0 0 -0 0 0 0 0 0 0 -0 0 -0 -0 0 -0 0 -0 -0 -0 0 -0 -0 0 0 1 nan
nan -0 0 0 0 0 -0 -0 -0 -0 0 0 0 -0 0 0 -0 -0 -0 -0 0 -0 -0 0 0 0 0 0 0 -0 -0 -0 -0 -0 -0 -0 -0 -0 -0 0 -0 -0 0 -0 0 0 1 0 nan
nan 0 0 0 -0 0 -0 -0 -0 0 0 0 0 0 -0 -0 -0 0 -0 -0 -0 -0 -0 -0 -0 -0 -0 0 -0 -0 -0 -0 -0 -0 -0 -0 -0 0 -0 0 0 0 -0 0 0 0 -0 -0 nan
nan -0 -0 0 0 -0 -0 -0 -0 0 0 0 0 -0 0 0 0 0 0 -0 -0 -0 -0 -0 -0 -0 -0 0 -0 -0 -0 -0 -0 -0 -0 0 0 0 0 0 0 0 0 -0 -0 -0 -0 0 nan
nan -0 0 0 1 -0 0 -0 -0 -0 -0 -0 -0 -0 -0 0 0 0 0 -0 -0 -0 -0 -0 -0 0 0 0 -0 -0 -0 -0 -0 -0 0 -0 0 -0 -0 0 0 -0 -0 -0 -0 -0 0 0 nan
nan 0 -0 -0 0 0 -0 -0 -0 0 -0 -0 -1 -0 -0 -0 -0 -0 -0 -0 -0 0 -0 0 0 0 0 0 0 -0 -0 -0 -0 0 -0 -0 -0 -0 -0 -0 -0 0 -0 -0 0 -0 0 0 nan
nan nan nan nan nan nan nan nan nan nan nan nan nan nan nan nan nan nan nan nan nan nan nan nan nan nan nan nan nan nan nan nan nan nan nan nan nan nan nan nan nan nan nan nan nan nan nan nan nan
Wind_Speed
9 6 2 2 4 8 14 10 8 9 10 6 6 5 8 7 9 5 12 15 20 20 20 23 22 19 16 14 14 14 13 13 12 11 11 10 9 8 8 8 9 8 6 4 5 6 5 4 6
6 5 2 5 6 11 10 10 13 12 9 5 5 5 5 10 7 9 21 17 20 18 20 18 20 17 16 14 13 12 13 12 11 11 9 9 8 7 7 8 8 8 7 4 4 4 4 5 5
6 4 5 2 9 11 11 10 9 8 5 1 3 7 5 7 6 14 14 21 19 19 19 20 20 17 15 13 12 12 12 11 11 11 10 9 8 7 6 6 6 6 5 6 5 4 3 3 6
4 3 4 8 13 10 11 7 7 5 4 5 5 8 9 8 10 8 21 23 20 19 18 20 19 17 14 12 12 11 11 11 10 9 9 9 8 7 6 5 4 4 5 5 5 4 2 3 8
4 5 7 7 13 8 6 5 1 2 4 5 2 6 9 6 7 16 19 19 19 18 17 21 19 17 15 13 12 10 10 9 9 8 7 7 6 6 5 4 3 3 4 5 5 4 3 4 8
5 5 5 9 12 8 8 5 1 1 4 5 6 7 7 8 13 16 18 18 16 17 15 17 19 16 15 13 12 10 9 8 8 7 7 7 7 5 5 4 3 4 4 5 5 5 5 4 8
4 2 9 9 8 12 9 3 3 4 5 6 6 5 8 10 13 14 16 17 15 15 15 15 17 18 16 14 12 12 10 9 8 7 7 6 6 6 6 5 5 5 5 6 6 6 6 5 7
0 3 7 2 5 11 9 3 1 1 6 9 5 5 9 14 15 14 14 15 14 14 15 15 15 15 15 14 12 11 11 10 9 8 8 7 7 7 7 6 5 5 5 5 6 6 5 5 6
2 4 6 5 6 7 6 2 2 1 8 4 5 6 11 18 18 15 14 13 14 15 15 15 15 15 14 12 12 12 12 11 10 8 7 6 3 6 7 7 9 7 6 7 7 6 7 7 7
6 6 4 5 7 8 6 3 2 6 7 5 6 8 16 20 19 18 17 16 16 16 16 14 13 14 13 10 11 12 12 10 9 8 8 5 6 7 8 10 11 9 8 8 7 7 7 9 9
1 7 1 3 8 9 8 3 5 6 4 4 9 14 18 20 19 18 17 17 16 16 15 15 15 13 12 11 10 11 11 11 11 10 10 9 9 9 7 8 8 9 9 5 6 6 6 9 13
4 2 3 5 8 7 7 6 4 8 5 4 7 15 20 20 18 16 14 13 14 15 14 14 15 14 13 14 10 11 10 11 10 12 10 11 12 10 9 9 13 12 9 9 9 6 9 8 11
3 2 4 8 9 7 5 7 8 6 3 3 9 17 20 18 16 14 12 11 13 14 14 14 14 13 13 13 10 11 11 11 12 10 12 14 16 16 19 19 15 12 11 9 11 8 7 9 9
2 5 7 5 4 3 6 5 3 4 2 6 12 15 18 17 16 15 14 12 11 13 14 13 12 11 11 12 13 13 12 13 12 11 12 14 15 20 14 21 19 17 12 11 10 9 8 9 10
4 9 5 1 3 3 7 11 4 2 2 6 10 14 17 16 15 15 15 14 13 12 13 13 13 11 11 11 10 10 9 10 11 12 13 14 16 17 16 15 22 19 18 15 12 10 9 9 12
6 9 10 7 5 3 9 7 5 1 4 7 10 14 15 15 15 13 13 14 14 14 16 14 14 12 11 10 9 8 9 11 13 13 11 14 15 16 16 18 19 18 18 16 14 12 10 16 13
6 8 3 1 3 6 4 9 5 1 3 7 10 13 14 14 14 13 11 12 14 16 15 16 15 13 12 11 10 9 9 8 8 9 10 14 13 15 17 18 17 18 17 17 16 16 16 16 13
2 6 4 5 2 8 5 5 4 3 5 7 10 14 14 13 13 11 10 10 13 15 16 16 16 16 15 12 11 9 8 8 9 10 10 13 13 15 17 18 20 20 19 19 19 18 16 16 14
2 5 6 4 2 8 3 7 3 4 6 7 10 14 15 14 12 10 9 11 15 18 18 19 17 18 18 14 11 8 7 8 10 10 14 16 19 20 23 20 21 22 23 20 20 18 18 16 17
6 6 6 1 2 7 7 8 4 6 6 7 10 14 16 17 15 12 10 12 14 13 11 15 16 13 14 12 9 7 5 5 10 13 15 17 18 19 22 24 23 23 22 23 20 19 17 15 17
9 9 2 6 5 8 7 14 6 7 5 8 11 11 18 19 16 13 10 12 13 12 11 11 9 12 14 11 7 4 6 6 7 9 10 12 13 14 17 19 23 24 26 25 22 21 20 16 15
8 3 4 6 7 7 1 9 6 3 4 8 10 15 17 19 15 13 10 10 13 12 10 11 13 13 11 9 6 3 2 3 7 8 9 12 11 12 13 15 17 20 24 25 24 20 23 22 18
3 1 4 6 9 7 9 7 4 4 6 3 2 9 14 16 17 14 12 13 10 12 16 13 14 12 9 7 3 2 3 5 6 8 11 12 12 13 11 13 15 16 19 21 22 23 27 28 25
4 7 7 6 8 10 3 6 7 3 4 2 1 0 10 15 15 13 11 12 12 13 19 11 11 10 8 6 2 5 5 5 5 8 8 10 11 10 11 11 13 16 17 16 18 20 21 30 29
9 9 8 7 7 7 3 6 9 5 3 4 5 3 8 14 15 14 12 12 16 14 17 13 10 6 7 5 4 4 4 5 7 9 10 12 12 12 10 11 10 10 13 15 14 17 18 22 27
13 15 10 6 7 2 4 5 2 2 5 5 4 1 8 13 13 13 11 11 13 17 13 10 12 8 7 2 3 3 3 5 7 9 11 11 13 12 12 9 9 6 6 10 12 13 15 19 23
8 10 14 11 8 8 8 4 11 6 9 7 1 5 8 11 11 11 8 11 12 14 13 11 11 7 4 1 2 1 3 5 8 8 9 10 12 13 12 9 6 5 5 6 8 9 11 15 21
8 4 8 9 12 9 5 5 4 1 3 5 5 7 10 10 10 11 11 11 12 14 13 12 9 6 3 3 2 2 3 6 7 7 9 11 12 11 12 11 6 3 4 5 7 7 8 10 13
7 9 9 7 4 8 6 7 6 1 4 3 7 11 13 13 12 12 13 14 14 15 14 12 8 5 7 6 3 2 2 4 5 7 9 10 12 11 12 12 8 4 2 3 1 1 1 3 5
5 8 9 9 12 8 8 10 5 2 3 0 10 14 15 12 12 14 15 15 14 14 13 12 11 11 9 6 4 4 2 2 5 6 8 9 10 10 12 13 11 9 8 6 5 3 0 2 2
Wind_Direction
18 13 323 309 124 77 68 72 63 72 82 85 50 12 40 14 359 53 144 154 152 151 156 154 156 157 155 152 150 151 157 160 161 159 158 153 158 161 157 159 159 156 161 171 164 160 166 167 169
7 358 337 285 81 80 77 77 69 67 81 101 78 119 57 75 38 113 142 150 149 150 152 156 157 158 159 157 154 153 156 158 158 155 160 162 162 160 161 172 173 174 171 177 180 171 178 180 188
11 11 300 113 60 62 79 77 88 71 57 64 116 45 21 42 75 131 153 147 149 152 153 166 160 162 163 160 155 157 158 159 161 159 163 166 161 164 168 175 179 197 184 187 193 188 197 193 185
328 265 225 54 77 67 58 75 83 85 78 62 75 78 84 65 106 134 147 151 153 156 161 166 165 168 167 162 161 162 158 158 161 161 164 165 162 166 158 168 171 184 192 189 187 209 193 187 178
293 251 125 93 87 76 76 83 69 10 68 76 43 106 93 104 118 141 149 156 157 158 166 170 169 175 172 169 168 167 165 163 162 164 166 167 168 167 175 185 181 183 188 207 204 211 206 202 182
238 263 112 79 80 88 89 110 160 70 92 104 101 104 92 124 138 146 155 160 162 160 165 170 173 177 177 178 175 177 174 172 176 174 175 181 185 196 197 197 201 199 198 219 227 223 225 208 189
314 108 68 85 106 76 64 101 121 99 117 104 121 98 121 136 151 147 158 161 164 164 165 177 177 181 185 187 183 188 185 186 190 187 191 195 202 197 221 222 216 218 216 225 230 238 233 213 207
202 123 128 60 60 71 71 85 62 315 96 132 135 123 151 161 156 149 156 160 164 173 176 181 182 183 190 192 194 201 205 197 197 199 203 204 213 226 228 231 242 235 232 234 235 239 217 219 212
236 155 120 87 34 30 83 359 180 148 140 155 144 102 129 155 152 152 152 161 170 181 184 188 190 186 191 191 202 206 213 213 211 212 214 215 192 268 260 248 235 235 228 227 226 226 210 204 210
267 139 63 24 15 356 356 329 173 205 154 153 146 126 143 150 154 163 164 172 181 186 192 191 201 201 199 196 210 210 213 210 214 212 225 194 224 226 220 239 250 239 238 230 227 223 206 210 224
33 67 64 47 360 337 334 270 229 242 209 187 190 166 161 159 164 170 172 180 185 186 192 194 200 204 206 208 216 217 218 210 213 214 221 210 213 223 272 265 264 267 259 243 276 247 219 215 195
248 68 343 343 333 318 332 337 267 256 301 68 161 169 167 167 170 172 171 181 181 183 186 193 199 206 207 218 216 224 226 227 223 223 234 231 232 233 227 242 274 244 239 240 231 226 218 216 222
253 43 298 302 308 295 278 293 299 301 278 202 166 164 170 169 168 169 172 179 181 181 187 191 199 209 212 220 222 218 221 239 225 239 235 236 234 229 269 253 249 243 256 234 239 215 226 234 229
9 289 288 305 319 265 289 295 270 76 101 166 166 169 170 170 170 173 181 182 190 185 189 196 202 218 226 229 234 230 225 232 236 234 228 240 244 241 265 247 244 252 234 236 240 234 227 232 240
278 274 220 86 7 32 318 226 210 17 144 150 163 165 166 171 175 185 191 194 196 197 194 198 207 213 220 223 223 222 233 238 232 236 237 236 251 249 244 226 235 247 236 245 249 257 247 238 234
265 247 262 97 322 76 321 62 67 183 183 152 156 159 165 174 181 187 195 200 203 200 200 201 203 211 211 214 214 209 224 231 232 218 236 239 238 250 244 237 234 241 242 245 248 261 261 255 245
207 262 202 166 11 332 308 332 80 153 187 158 158 162 174 177 183 187 194 203 204 206 206 205 205 205 204 202 202 211 222 228 237 244 241 253 243 235 236 234 241 232 236 241 245 254 255 256 248
258 233 192 260 359 322 286 305 67 205 210 191 163 172 184 187 189 193 197 203 206 206 206 203 202 197 200 204 208 221 239 244 249 251 251 255 258 252 248 246 238 233 233 239 244 245 247 254 244
300 271 272 232 360 310 329 306 306 211 220 197 179 183 193 195 189 188 197 211 213 207 207 207 204 204 192 200 213 232 247 259 268 260 272 272 269 265 263 254 251 246 241 235 237 239 238 241 249
245 262 241 239 243 290 301 292 275 206 229 218 195 189 202 197 194 196 214 216 209 205 202 209 217 224 200 198 209 220 255 274 287 283 282 275 270 262 260 256 251 247 246 241 235 236 238 240 234
227 254 273 307 304 250 274 256 212 163 204 213 219 207 205 206 198 193 193 204 190 175 186 208 202 204 196 203 217 262 292 303 319 304 302 291 286 272 263 261 258 255 249 246 244 240 237 232 234
227 185 247 274 269 277 280 292 189 246 235 210 219 209 208 204 197 189 185 190 193 194 187 187 178 189 191 194 210 238 283 325 322 327 313 316 302 293 271 261 258 257 253 248 246 241 239 233 233
96 182 284 276 255 290 210 263 256 176 264 51 200 214 209 204 197 188 186 179 172 175 183 182 201 200 189 183 181 78 59 12 0 352 348 333 324 325 300 271 259 255 252 247 243 239 235 234 235
139 242 231 245 265 251 264 268 280 303 354 7 94 265 200 196 193 187 179 181 189 172 179 173 165 168 168 161 89 51 34 8 16 4 7 353 335 318 306 296 275 262 244 246 238 240 238 233 227
232 234 240 227 211 256 83 252 275 323 282 292 299 15 183 182 190 186 184 184 180 175 181 186 178 176 149 127 49 44 43 28 14 13 358 2 341 335 311 319 296 276 249 240 234 233 237 224 214
217 237 260 274 269 218 148 252 261 327 270 275 284 262 163 172 184 188 185 178 178 176 174 170 172 163 148 118 46 54 61 22 18 356 359 346 347 339 344 335 318 283 262 233 228 227 228 223 227
183 230 248 268 247 273 268 220 261 238 260 252 185 116 153 164 170 181 178 170 165 166 170 158 154 158 173 275 88 92 16 357 1 3 6 349 351 348 354 351 329 299 256 230 222 229 226 230 230
258 174 203 228 262 261 195 256 289 356 256 150 126 149 146 162 168 175 173 164 154 154 152 154 165 164 169 134 119 119 4 360 8 8 7 6 1 356 3 2 351 331 302 261 250 248 251 233 226
185 216 239 298 305 292 247 216 118 319 329 342 144 158 152 152 158 166 162 157 152 153 160 157 161 163 155 151 154 137 37 17 21 19 16 13 8 15 22 22 18 17 22 356 51 50 231 229 227
270 270 225 239 201 237 294 293 140 244 321 156 158 159 160 152 152 158 157 156 154 156 156 154 153 160 164 165 167 135 108 60 19 22 21 16 16 25 35 40 42 47 50 51 34 17 185 201 197
Height
1507 1507 1506 1506 1502 1500 1511 1518 1504 1508 1512 1516 1517 1514 1514 1517 1515 1526 1531 1535 1537 1541 1543 1544 1547 1550 1554 1556 1558 1560 1562 1564 1565 1566 1568 1570 1571 1572 1573 1574 1576 1576 1578 1578 1579 1579 1579 1580 1581
1510 1508 1508 1502 1498 1511 1519 1508 1514 1515 1518 1519 1519 1518 1518 1521 1526 1528 1532 1536 1541 1545 1546 1549 1550 1553 1555 1557 1559 1560 1562 1564 1566 1567 1569 1570 1571 1573 1574 1576 1576 1576 1577 1579 1580 1580 1580 1581 1582
1509 1509 1508 1496 1499 1513 1517 1511 1515 1519 1521 1518 1518 1521 1521 1527 1530 1532 1533 1538 1543 1546 1549 1548 1550 1553 1556 1558 1560 1562 1564 1566 1568 1569 1570 1571 1573 1574 1575 1576 1576 1577 1578 1580 1581 1581 1581 1582 1583
1514 1513 1508 1502 1509 1512 1512 1513 1516 1516 1519 1521 1521 1523 1529 1531 1533 1534 1535 1538 1541 1547 1551 1549 1552 1555 1558 1559 1562 1564 1565 1567 1569 1570 1572 1573 1573 1575 1575 1576 1577 1578 1579 1580 1581 1582 1582 1582 1582
1514 1507 1502 1509 1511 1510 1511 1516 1518 1516 1519 1521 1522 1524 1528 1533 1534 1535 1538 1542 1544 1548 1552 1552 1554 1557 1559 1561 1563 1566 1567 1568 1570 1571 1573 1574 1575 1576 1576 1577 1578 1579 1580 1580 1581 1582 1583 1584 1584
1508 1505 1503 1511 1511 1508 1513 1516 1517 1517 1520 1522 1522 1525 1531 1534 1536 1538 1540 1543 1548 1551 1554 1555 1556 1559 1561 1562 1563 1566 1568 1569 1571 1572 1574 1575 1576 1577 1577 1578 1578 1579 1579 1579 1581 1582 1583 1584 1585
1508 1499 1513 1510 1511 1510 1512 1516 1513 1515 1518 1521 1523 1524 1533 1537 1538 1539 1542 1545 1550 1554 1556 1557 1557 1559 1561 1563 1565 1567 1568 1570 1571 1572 1574 1575 1576 1578 1579 1579 1579 1579 1579 1579 1581 1581 1584 1584 1586
1513 1504 1513 1510 1511 1513 1513 1514 1517 1515 1520 1523 1524 1524 1531 1536 1538 1541 1545 1548 1552 1555 1556 1558 1559 1560 1562 1563 1565 1568 1570 1570 1571 1573 1574 1575 1576 1578 1580 1580 1580 1580 1580 1580 1580 1581 1584 1585 1588
1514 1506 1514 1513 1510 1510 1511 1511 1517 1518 1520 1522 1524 1526 1530 1534 1539 1543 1546 1550 1553 1555 1556 1559 1559 1562 1563 1565 1566 1568 1571 1572 1572 1573 1574 1575 1580 1581 1582 1582 1580 1580 1580 1580 1580 1581 1583 1583 1585
1506 1503 1511 1511 1511 1511 1511 1513 1514 1516 1518 1523 1526 1529 1531 1534 1538 1542 1545 1549 1551 1554 1556 1559 1561 1561 1562 1564 1566 1569 1570 1573 1575 1575 1575 1577 1581 1582 1584 1583 1581 1581 1580 1580 1579 1581 1582 1583 1584
1512 1507 1514 1513 1514 1514 1512 1512 1513 1512 1513 1516 1523 1528 1531 1534 1537 1540 1543 1546 1549 1552 1556 1557 1560 1561 1563 1567 1566 1567 1570 1571 1573 1573 1573 1575 1578 1579 1583 1584 1584 1582 1581 1582 1580 1579 1581 1582 1583
1513 1516 1516 1514 1515 1514 1512 1512 1511 1512 1512 1517 1520 1524 1529 1533 1536 1540 1543 1547 1549 1551 1553 1556 1558 1560 1562 1566 1566 1566 1569 1570 1571 1570 1571 1573 1574 1576 1578 1582 1581 1581 1584 1582 1581 1580 1581 1580 1580
1515 1517 1517 1515 1515 1514 1514 1511 1510 1512 1514 1517 1520 1524 1527 1532 1536 1539 1542 1545 1548 1549 1552 1554 1555 1557 1560 1560 1564 1564 1568 1569 1569 1569 1569 1570 1570 1572 1573 1575 1578 1580 1581 1581 1579 1578 1579 1579 1579
1519 1518 1516 1513 1513 1513 1512 1508 1511 1513 1515 1517 1520 1524 1527 1532 1535 1538 1541 1544 1547 1548 1550 1553 1554 1555 1557 1558 1559 1561 1564 1565 1566 1569 1568 1567 1567 1567 1568 1567 1574 1576 1578 1579 1577 1576 1575 1576 1578
1518 1515 1510 1510 1510 1508 1510 1504 1506 1511 1514 1516 1520 1524 1528 1531 1534 1537 1539 1542 1545 1548 1550 1551 1553 1554 1555 1556 1557 1558 1561 1562 1566 1566 1564 1564 1563 1562 1564 1566 1571 1573 1574 1572 1572 1571 1572 1574 1576
1512 1511 1510 1506 1508 1510 1508 1505 1507 1511 1512 1516 1521 1525 1529 1531 1533 1537 1539 1541 1543 1546 1547 1549 1551 1552 1554 1555 1556 1558 1561 1561 1561 1561 1564 1563 1562 1560 1561 1562 1564 1569 1569 1571 1570 1570 1570 1570 1571
1509 1510 1512 1510 1509 1509 1508 1507 1508 1510 1512 1515 1521 1526 1528 1530 1532 1535 1537 1539 1542 1544 1545 1547 1549 1551 1553 1553 1555 1556 1557 1558 1561 1561 1561 1559 1558 1558 1558 1559 1560 1562 1564 1565 1566 1567 1568 1567 1569
1511 1513 1510 1516 1508 1507 1504 1503 1503 1509 1510 1513 1519 1524 1527 1529 1532 1535 1536 1537 1539 1541 1543 1545 1546 1546 1548 1551 1553 1553 1555 1556 1557 1557 1557 1555 1553 1553 1552 1554 1555 1556 1557 1560 1561 1562 1565 1564 1564
1516 1517 1517 1509 1510 1510 1505 1505 1501 1506 1508 1511 1516 1521 1524 1528 1531 1532 1533 1534 1535 1536 1538 1541 1543 1543 1544 1548 1553 1553 1554 1553 1552 1553 1551 1550 1549 1549 1548 1548 1547 1549 1551 1553 1555 1556 1558 1561 1563
1516 1517 1513 1508 1511 1511 1503 1503 1497 1504 1506 1509 1512 1517 1522 1524 1528 1529 1529 1530 1532 1534 1537 1540 1542 1544 1545 1547 1550 1551 1551 1551 1550 1548 1546 1545 1544 1542 1541 1541 1542 1542 1544 1546 1548 1549 1552 1557 1560
1514 1515 1513 1515 1509 1504 1506 1502 1497 1498 1505 1508 1510 1512 1515 1518 1524 1526 1527 1528 1531 1534 1537 1538 1541 1542 1544 1546 1547 1548 1547 1546 1547 1546 1544 1542 1538 1537 1536 1535 1535 1535 1537 1540 1542 1543 1546 1551 1556
1513 1510 1513 1512 1512 1512 1504 1516 1495 1492 1496 1499 1504 1507 1511 1516 1521 1524 1525 1526 1530 1534 1537 1537 1541 1542 1542 1544 1546 1546 1546 1545 1542 1541 1540 1536 1534 1532 1532 1531 1530 1530 1531 1534 1536 1539 1540 1545 1550
1507 1512 1512 1511 1508 1509 1503 1512 1490 1491 1493 1493 1498 1503 1508 1513 1519 1522 1524 1527 1529 1531 1535 1537 1539 1541 1542 1543 1543 1544 1543 1543 1542 1539 1535 1533 1532 1529 1528 1527 1526 1526 1527 1529 1531 1533 1535 1539 1545
1511 1511 1510 1507 1503 1518 1501 1510 1494 1489 1491 1493 1498 1502 1505 1511 1517 1521 1524 1526 1527 1531 1534 1536 1538 1540 1541 1541 1540 1540 1540 1540 1540 1537 1536 1534 1532 1529 1526 1523 1521 1521 1522 1524 1526 1528 1531 1532 1537
1511 1511 1519 1520 1517 1516 1505 1510 1496 1486 1490 1495 1496 1501 1504 1509 1514 1518 1521 1523 1525 1528 1533 1536 1537 1538 1540 1540 1539 1539 1539 1540 1539 1538 1536 1532 1531 1528 1524 1521 1519 1518 1519 1521 1523 1524 1526 1526 1533
1506 1505 1512 1529 1518 1509 1508 1512 1492 1487 1491 1494 1498 1500 1503 1507 1511 1515 1519 1522 1524 1528 1531 1533 1535 1536 1538 1538 1537 1538 1539 1539 1540 1537 1535 1534 1529 1528 1524 1521 1519 1519 1518 1518 1520 1522 1524 1526 1530
1504 1514 1495 1505 1502 1513 1496 1490 1482 1483 1487 1489 1495 1499 1502 1506 1510 1513 1516 1519 1522 1525 1530 1531 1533 1534 1536 1536 1537 1537 1538 1539 1538 1536 1536 1533 1530 1527 1524 1521 1520 1518 1518 1519 1520 1520 1522 1524 1527
1501 1492 1510 1503 1523 1527 1499 1503 1494 1486 1482 1483 1495 1498 1502 1505 1508 1512 1515 1517 1520 1522 1525 1528 1530 1533 1535 1536 1537 1538 1539 1538 1538 1537 1535 1532 1530 1527 1524 1521 1519 1518 1518 1518 1518 1519 1521 1523 1525
1503 1500 1497 1491 1496 1506 1508 1493 1476 1481 1479 1483 1492 1497 1502 1504 1508 1511 1514 1517 1520 1521 1524 1526 1529 1532 1535 1536 1537 1538 1539 1540 1538 1537 1535 1533 1530 1527 1524 1521 1519 1518 1518 1518 1518 1519 1520 1522 1523
1488 1489 1489 1500 1507 1495 1500 1492 1471 1477 1481 1486 1490 1496 1501 1504 1507 1511 1515 1519 1521 1522 1525 1528 1529 1533 1535 1535 1536 1537 1538 1539 1536 1535 1535 1534 1532 1529 1525 1522 1521 1520 1520 1519 1519 1520 1521 1522 1523